This is the latest recevied weather packets stored in our database for station/object KR8N. If no packets are shown the sender has not sent any weather packets the latest 10 day(s).
| Time | Temp. | Humidity | Pressure | Rain* | Wind** | Luminosity | Snow |
|---|---|---|---|---|---|---|---|
| 1777680547 | 10.56° C | 66% | 1016.1 hPa | 0 mm | - | 6 W/m² | - |
| 1777680246 | 10.56° C | 68% | 1016.1 hPa | 0 mm | - | 7 W/m² | - |
| 1777679941 | 10.56° C | 69% | 1016.3 hPa | 0 mm | - | 7 W/m² | - |
| 1777679637 | 10.56° C | 68% | 1016 hPa | 0 mm | - | 9 W/m² | - |
| 1777679332 | 10.56° C | 68% | 1015.7 hPa | 0 mm | - | 14 W/m² | - |
| 1777679029 | 10.56° C | 68% | 1015.8 hPa | 0 mm | - | 22 W/m² | - |
| 1777678728 | 11.11° C | 68% | 1015.3 hPa | 0 mm | - | 40 W/m² | - |
| 1777678425 | 11.11° C | 68% | 1015.5 hPa | 0 mm | - | 34 W/m² | - |
| 1777678120 | 11.11° C | 67% | 1015.3 hPa | 0 mm | - | 43 W/m² | - |
| 1777677818 | 11.67° C | 68% | 1015.3 hPa | 0 mm | - | 55 W/m² | - |
| 1777677515 | 11.67° C | 66% | 1015.3 hPa | 0 mm | - | 68 W/m² | - |
| 1777677213 | 11.67° C | 67% | 1015.3 hPa | 0 mm | - | 83 W/m² | - |
| 1777676911 | 11.67° C | 66% | 1015.3 hPa | 0 mm | - | 55 W/m² | - |
| 1777676610 | 11.67° C | 66% | 1015.4 hPa | 0 mm | - | 43 W/m² | - |
| 1777676307 | 11.67° C | 65% | 1015.5 hPa | 0 mm | - | 49 W/m² | - |
| 1777676005 | 11.67° C | 64% | 1015.1 hPa | 0 mm | - | 73 W/m² | - |
| 1777675700 | 12.22° C | 63% | 1015.3 hPa | 0 mm | - | 90 W/m² | - |
| 1777675398 | 12.78° C | 62% | 1015.3 hPa | 0 mm | - | 71 W/m² | - |
| 1777675094 | 12.78° C | 61% | 1015.4 hPa | 0 mm | - | 110 W/m² | - |
| 1777674790 | 12.78° C | 61% | 1015.2 hPa | 0 mm | - | 135 W/m² | - |
| 1777674486 | 12.78° C | 60% | 1015.1 hPa | 0 mm | - | 67 W/m² | - |
| 1777674185 | 12.78° C | 60% | 1015 hPa | 0 mm | - | 106 W/m² | - |
| 1777673881 | 12.78° C | 62% | 1014.7 hPa | 0 mm | - | 122 W/m² | - |
| 1777673578 | 12.78° C | 57% | 1014.6 hPa | 0 mm | - | 109 W/m² | - |
| 1777673275 | 13.33° C | 55% | 1014.9 hPa | 0 mm | - | 45 W/m² | - |
* Rain latest hour (hover to see other rain measurements)
** Current wind speed in m/s (hover to see current wind gust speed)